User: anonymous   Login
Location: Unspecified
(42.3650°N, 71.1030°W)
Time: 00:24:01
(UTC+00:00)
Language:

Explorer 11/Cluster Stage 4 - Orbit

View from above orbital plane
View from above orbital plane
View from above satellite
View from above satellite

Ground track
Ground track

The orbit data is extracted from the following two-line orbital elements,

1 00107U 61013A   24164.25850832  .00003292  00000-0  40583-3 0  9998
2 00107  28.7842 215.3878 0521226 134.6869 229.7391 14.15342703171990
Epoch (UTC): 12 June 2024 06:12:15
Eccentricity: 0.0521226
inclination: 28.7842°
perigee height: 465 km
apogee height: 1217 km
right ascension of ascending node: 215.3878°
argument of perigee: 134.6869°
revolutions per day: 14.15342703
mean anomaly at epoch: 229.7391°
orbit number at epoch: 17199

The dashed part of the orbit path shows where the satellite is in the earth's shadow,  

DLR